This demonstration page uses our WeatherBlox Daily Observations layout. Learn more.

Left ArrowRight Arrow

38.88101, -77.10428

Hourly Observations for November 30, 2022

Temp ( °F °C ) Dew Point ( °F °C ) Humidity (%) Winds ( mph kmh ) Pressure ( in mb ) Visibility ( mi km ) Precip ( " mm )
12:52 am 00:52 Cloudy 46 7.8 40 4.4 79 79 S 8 13 30.14 1021 10 16 0.00 0.00
1:52 am 01:52 Cloudy 47 8.3 41 5 80 80 S 8 13 30.12 1020 10 16 0.00 0.00
2:52 am 02:52 Cloudy 47 8.3 42 5.6 83 83 S 7 11 30.09 1019 10 16 0.00 0.00
3:52 am 03:52 Cloudy 48 8.9 43 6.1 83 83 S 6 9 30.08 1019 10 16 0.00 0.00
4:52 am 04:52 Cloudy 48 8.9 44 6.7 86 86 SSE 9 15 30.05 1018 10 16 0.00 0.00
5:52 am 05:52 Cloudy with Rain 49 9.4 47 8.3 93 93 SSW 8 13 30.04 1017 5 8 0.04 1.02
6:41 am 06:41 Cloudy with Rain 48 8.9 47 8.3 96 96 S 8 13 30.03 1017 4 6 0.10 2.54
6:52 am 06:52 Cloudy with Rain 48 8.9 47 8.3 96 96 S 8 13 30.02 1017 4 6 0.11 2.79
7:11 am 07:11 Cloudy with Rain 48 8.9 47 8.3 96 96 S 7 11 30.01 1016 5 8 0.03 0.76
7:28 am 07:28 Cloudy with Rain 49 9.4 47 8.3 93 93 SSW 9 15 30.02 1017 3 5 0.06 1.52
7:52 am 07:52 Cloudy with Light Rain 49 9.4 48 8.9 97 97 S 10 17 30.00 1016 4 6 0.09 2.29
8:29 am 08:29 Cloudy with Light Rain 50 10 48 8.9 93 93 S 10 17 29.98 1015 5 8 0.03 0.76
8:52 am 08:52 Cloudy with Light Rain 50 10 48 8.9 93 93 S 15 24 29.97 1015 7 11 0.05 1.27
9:22 am 09:22 Cloudy with Light Rain 50 10 48 8.9 93 93 S 16 26 29.96 1015 6 10 0.01 0.25
9:29 am 09:29 Cloudy with Light Rain 51 10.6 49 9.4 92 92 S 16 26 29.96 1015 6 10 0.02 0.51
9:52 am 09:52 Cloudy with Light Rain 50 10 48 8.9 93 93 S 16 26 29.92 1013 10 16 0.03 0.76
10:52 am 10:52 Cloudy 53 11.7 50 10 89 89 SSW 16 26 29.87 1012 10 16 0.01 0.13
11:52 am 11:52 Cloudy 55 12.8 51 10.6 86 86 S 17 28 29.83 1010 10 16 0.01 0.13
12:52 pm 12:52 Cloudy 57 13.9 52 11.1 83 83 SSW 15 24 29.78 1009 10 16 0.00 0.00
1:52 pm 13:52 Cloudy 57 13.9 53 11.7 87 87 S 9 15 29.76 1008 10 16 0.01 0.13
2:52 pm 14:52 Cloudy 58 14.4 53 11.7 84 84 SSW 13 20 29.75 1008 10 16 0.00 0.00
3:17 pm 15:17 Mostly Cloudy 58 14.4 54 12.2 87 87 SSW 10 17 29.75 1007 10 16 0.00 0.00
3:52 pm 15:52 Cloudy with Light Rain 59 15 52 11.1 77 77 NNW 10 17 29.81 1009 10 16 0.01 0.13
4:18 pm 16:18 Cloudy 57 13.9 38 3.3 49 49 NW 10 17 29.82 1010 10 16 0.01 0.13
4:52 pm 16:52 Cloudy 57 13.9 31 -0.6 37 37 NW 14 22 29.85 1011 10 16 0.01 0.13
5:52 pm 17:52 Mostly Cloudy 54 12.2 24 -4.4 31 31 NW 14 22 29.92 1013 10 16 0.00 0.00
6:52 pm 18:52 Mostly Clear 51 10.6 25 -3.9 36 36 WNW 13 20 29.96 1014 10 16 0.00 0.00
7:52 pm 19:52 Clear 49 9.4 19 -7.2 30 30 WNW 6 9 29.98 1015 10 16 0.00 0.00
8:52 pm 20:52 Clear 47 8.3 21 -6.1 35 35 NW 15 24 30.02 1017 10 16 0.00 0.00
9:52 pm 21:52 Clear 46 7.8 21 -6.1 37 37 NW 20 31 30.05 1018 10 16 0.00 0.00
10:52 pm 22:52 Clear 44 6.7 20 -6.7 38 38 NW 15 24 30.07 1018 10 16 0.00 0.00
11:52 pm 23:52 Clear 43 6.1 19 -7.2 38 38 WNW 10 17 30.09 1019 10 16 0.00 0.00

Powered by AerisWeather